EW7191 Weather Reports


Display with metric or nautical units.
time (UTC)temp
F
wind
direction
speed
MPH
gust
MPH
rain 1hr
in
rain 24hr
in
rain mn
in
humidity
%
barometer
mb
20260503021545 73 272 0.0 0.0 0.00 0.00 0.00 54 1013.8
20260503020044 74 329 0.0 0.0 0.00 0.00 0.00 54 1013.7
20260503014544 75 314 0.0 0.0 0.00 0.00 0.00 52 1013.4
20260503013044 76 316 0.0 1.0 0.00 0.00 0.00 51 1013.4
20260503011542 77 317 0.0 1.0 0.00 0.00 0.00 49 1013.4
20260503010041 77 297 0.0 1.0 0.00 0.00 0.00 49 1013.5
20260503004541 76 301 0.0 1.0 0.00 0.00 0.00 51 1013.6
20260503003041 79 319 0.0 1.0 0.00 0.00 0.00 47 1013.6
20260503001540 79 319 0.0 0.0 0.00 0.00 0.00 48 1013.5
20260503000038 79 283 0.0 1.0 0.00 0.00 0.00 50 1013.6
20260502234548 79 309 0.0 1.0 0.00 0.00 0.00 47 1013.8
20260502233034 77 328 0.0 0.0 0.00 0.00 0.00 51 1014.1
20260502231530 77 319 0.0 0.0 0.00 0.00 0.00 49 1014.4
20260502230028 78 84 0.0 0.0 0.00 0.00 0.00 49 1014.6
20260502224524 77 275 0.0 0.0 0.00 0.00 0.00 53 1014.9
20260502223022 76 288 0.0 0.0 0.00 0.00 0.00 51 1015.3
20260502221519 75 288 0.0 0.0 0.00 0.00 0.00 54 1015.5
20260502220016 75 221 0.0 0.0 0.00 0.00 0.00 53 1015.7
20260502214530 74 323 0.0 0.0 0.00 0.00 0.00 59 1015.8
20260502213008 73 245 0.0 0.0 0.00 0.00 0.00 57 1016.2
20260502211512 71 262 0.0 1.0 0.00 0.00 0.00 60 1016.3
20260502210004 71 232 0.0 1.0 0.00 0.00 0.00 57 1016.6
20260502204616 70 190 0.0 2.0 0.00 0.00 0.00 60 1016.8
20260502203053 68 310 0.0 1.0 0.00 0.00 0.00 61 1017.0
20260502201550 67 295 0.0 3.0 0.00 0.00 0.00 64 1017.3
20260502200147 66 226 0.0 0.0 0.00 0.00 0.00 62 1017.5
20260502194545 67 321 0.0 1.0 0.00 0.00 0.00 62 1017.5
20260502193049 66 261 0.0 0.0 0.00 0.00 0.00 63 1017.8
20260502191545 66 238 0.0 1.0 0.00 0.00 0.00 65 1018.1
20260502190037 65 326 0.0 0.0 0.00 0.00 0.00 67 1018.3
20260502184540 63 141 0.0 0.0 0.00 0.00 0.00 71 1018.5
20260502183032 62 284 0.0 2.0 0.00 0.00 0.00 67 1018.7
20260502181534 62 98 0.0 0.0 0.00 0.00 0.00 73 1018.8
20260502163010 56 37 0.0 0.0 0.00 0.00 0.00 79 1019.5
20260502161507 56 262 0.0 0.0 0.00 0.00 0.00 80 1019.7
20260502151606 54 266 0.0 0.0 0.00 0.00 0.00 87 1019.5
20260502123051 48 272 0.0 0.0 0.00 0.00 0.00 93 1019.2
20260502121552 48 272 0.0 0.0 0.00 0.00 0.00 93 1019.2
20260502114546 48 272 0.0 0.0 0.00 0.00 0.00 93 1019.3
20260502113043 48 272 0.0 0.0 0.00 0.00 0.00 92 1019.4
20260502111549 48 272 0.0 0.0 0.00 0.00 0.00 92 1019.5
20260502110039 49 272 0.0 0.0 0.00 0.00 0.00 92 1019.5
20260502104539 49 272 0.0 0.0 0.00 0.00 0.00 92 1019.6
20260502103048 49 272 0.0 0.0 0.00 0.00 0.00 91 1019.6
20260502101537 49 272 0.0 0.0 0.00 0.00 0.00 91 1019.6
20260502091529 50 272 0.0 0.0 0.00 0.00 0.00 90 1020.2
20260502071514 53 272 0.0 0.0 0.00 0.00 0.00 84 1020.6
20260502070018 54 272 0.0 0.0 0.00 0.00 0.00 83 1020.7
20260502064507 54 272 0.0 0.0 0.00 0.00 0.00 82 1020.6
20260502063010 55 272 0.0 0.0 0.00 0.00 0.00 81 1020.7
20260502061507 57 272 0.0 0.0 0.00 0.00 0.00 78 1020.7
20260502060106 57 272 0.0 0.0 0.00 0.00 0.00 77 1020.7
20260502054506 58 272 0.0 0.0 0.00 0.00 0.00 76 1020.7
20260502053005 59 269 0.0 0.0 0.00 0.00 0.00 75 1020.6
20260502051504 59 285 0.0 0.0 0.00 0.00 0.00 74 1020.7
20260502050007 60 263 0.0 0.0 0.00 0.00 0.00 73 1020.5
20260502044504 60 260 0.0 0.0 0.00 0.00 0.00 72 1020.4
20260502043003 61 257 0.0 0.0 0.00 0.00 0.00 72 1020.2
20260502041502 61 263 0.0 0.0 0.00 0.00 0.00 71 1020.0
20260502040001 61 312 0.0 0.0 0.00 0.00 0.00 70 1019.7
20260502034502 62 158 0.0 0.0 0.00 0.00 0.00 70 1019.6
20260502033100 63 121 0.0 0.0 0.00 0.00 0.00 69 1019.4
20260502031600 64 324 0.0 0.0 0.00 0.00 0.00 66 1019.2
20260502030101 64 327 0.0 1.0 0.00 0.00 0.00 65 1019.0
20260502024558 65 311 0.0 2.0 0.00 0.00 0.00 63 1018.8
20260502023059 66 316 0.0 0.0 0.00 0.00 0.00 62 1018.6